Millville, NJ

10:57 AM EST on December 14, 2019 (GMT -0500)
Millville Municipal

Weather History for KMIV - October, 2019

Change the Weather History Date:

Thursday, October 10, 2019

  Actual Average Record
Temperature  
Mean Temperature 62 °F -  
Max Temperature 75 °F 67 °F 86 °F (1997)
Min Temperature 50 °F 46 °F 30 °F (2000)
Degree Days  
Heating Degree Days 2    
Growing Degree Days 12 (Base 50)    
Moisture  
Dew Point 44 °F    
Average Humidity 58    
Maximum Humidity 86    
Minimum Humidity 33    
Precipitation  
Precipitation 0.00 in - - ()
Sea Level Pressure  
Sea Level Pressure 30.17 in    
Wind  
Wind Speed 10 mph (North)    
Max Wind Speed 17 mph    
Max Gust Speed 24 mph    
Visibility 10 miles    
Events      
Averages and records for this station are not official NWS values.
T = Trace of Precipitation, MM = Missing Value Source: NWS Daily Summary

Daily Weather History Graph

Daily Weather History Graph

Search for Another Location

Airport or City:

Astronomy

Oct. 10, 2019 Rise Set
Actual Time 7:04 AM EDT 6:29 PM EDT
Civil Twilight 6:37 AM EDT 6:55 PM EDT
Nautical Twilight 6:06 AM EDT 7:27 PM EDT
Astronomical Twilight 5:35 AM EDT 7:58 PM EDT
Moon 5:28 PM EDT (10/10) 3:47 AM EDT (10/10)
Length of Visible Light 12h 18m
Length of Day
11h 24m
Waxing Gibbous, 91% of the Moon is Illuminated
Oct 10
Waxing Gibbous
Oct 13
Full
Oct 21
Last Quarter
Oct 27
New
Nov 4
First Quarter

Hourly Weather History & Observations

Time (EDT) Temp. Dew Point Humidity Pressure Visibility Wind Dir Wind Speed Gust Speed Precip Events Conditions
12:54 AM 53.1 °F 48.9 °F 86% 30.22 in 10.0 mi North 9.2 mph - N/A   Overcast
1:54 AM 52.0 °F 48.0 °F 86% 30.22 in 10.0 mi North 8.1 mph - N/A   Overcast
2:54 AM 52.0 °F 48.0 °F 86% 30.21 in 10.0 mi North 8.1 mph - N/A   Overcast
3:34 AM 51.1 °F 46.9 °F 86% 30.21 in 10.0 mi NNW 8.1 mph - N/A   Scattered Clouds
3:54 AM 51.1 °F 46.0 °F 83% 30.21 in 10.0 mi NNW 6.9 mph - N/A   Clear
4:54 AM 50.0 °F 46.0 °F 86% 30.21 in 10.0 mi NNW 6.9 mph - N/A   Partly Cloudy
5:54 AM 51.1 °F 45.0 °F 80% 30.21 in 10.0 mi NNW 8.1 mph - N/A   Clear
6:54 AM 50.0 °F 45.0 °F 83% 30.21 in 10.0 mi North 8.1 mph - N/A   Clear
7:54 AM 53.1 °F 45.0 °F 74% 30.21 in 10.0 mi North 9.2 mph - N/A   Overcast
8:54 AM 55.0 °F 45.0 °F 69% 30.21 in 10.0 mi North 10.4 mph - N/A   Overcast
9:54 AM 61.0 °F 46.9 °F 60% 30.20 in 10.0 mi North 10.4 mph - N/A   Partly Cloudy
10:54 AM 66.0 °F 48.0 °F 52% 30.20 in 10.0 mi North 13.8 mph - N/A   Partly Cloudy
11:54 AM 69.1 °F 48.0 °F 47% 30.18 in 10.0 mi North 10.4 mph - N/A   Mostly Cloudy
12:54 PM 72.0 °F 48.0 °F 43% 30.17 in 10.0 mi North 13.8 mph 23.0 mph N/A   Clear
1:54 PM 73.9 °F 46.9 °F 38% 30.14 in 10.0 mi North 17.3 mph 23.0 mph N/A   Clear
2:54 PM 75.0 °F 48.0 °F 38% 30.13 in 10.0 mi NNE 13.8 mph 23.0 mph N/A   Clear
3:54 PM 75.0 °F 46.0 °F 36% 30.12 in 10.0 mi NNE 16.1 mph 24.2 mph N/A   Clear
4:54 PM 73.9 °F 43.0 °F 33% 30.12 in 10.0 mi NE 17.3 mph 24.2 mph N/A   Clear
5:54 PM 71.1 °F 41.0 °F 34% 30.13 in 10.0 mi NE 13.8 mph 24.2 mph N/A   Clear
6:54 PM 68.0 °F 39.9 °F 36% 30.13 in 10.0 mi NNE 9.2 mph - N/A   Clear
7:54 PM 66.0 °F 39.0 °F 37% 30.13 in 10.0 mi North 6.9 mph - N/A   Scattered Clouds
8:54 PM 63.0 °F 39.0 °F 41% 30.14 in 10.0 mi North 6.9 mph - N/A   Clear
9:54 PM 63.0 °F 39.0 °F 41% 30.13 in 10.0 mi North 5.8 mph - N/A   Mostly Cloudy
10:54 PM 61.0 °F 39.9 °F 46% 30.14 in 10.0 mi NNW 4.6 mph - N/A   Overcast
11:54 PM 60.1 °F 35.1 °F 39% 30.13 in 10.0 mi North 8.1 mph - N/A   Partly Cloudy